TIME,DELAY(SENSOR),PRES,OXYGEN,RAWTEMP,T(OPTODE),TCPHASE,FLUOR,BETA(BETA700),BETA(BETA412),BETA(BETA440),CDOM,C(CSC),ED(ED412.20),ED(ED444.00),ED(ED489.60),ED(ED554.30),LU(LU412.10),LU(LU443.90),LU(LU489.70),LU(LU554.70),COMP,TILTX,TILTY,CHECK
1340075837,5809,884.8599853515625000,37.7894592285156250,564.9155883789062000,4.3334498405456540,55.8938217163085940,55,101,102,79,83,15551,0,0,0,0,2147122642,2147780470,2147576246,2147574628,3355,3,13,56465
1340079433,5810,978.7600097656250000,37.8766593933105500,572.9221191406250000,4.0847210884094240,55.9628601074218750,55,98,100,79,83,15553,0,0,0,0,2147120941,2147776640,2147576841,2147571337,1368,3,13,15630
1340083033,5812,995.0499877929688000,40.7595596313476560,574.6475219726562000,4.0310440063476560,55.5527496337890600,54,97,101,78,83,15552,0,0,0,0,2147121042,2147779620,2147577133,2147574198,227,3,13,59745
1340086633,5809,1002.9899902343750000,41.5297393798828100,574.6279296875000000,4.0316557884216310,55.4421997070312500,55,97,101,79,83,15553,0,0,0,0,2147118427,2147782336,2147574016,2147575067,69,3,13,50793
1340090233,5808,1004.4099731445312000,41.3350296020507800,574.6669921875000000,4.0304388999938965,55.4649009704589840,55,98,100,79,83,15552,0,0,0,0,2147121581,2147779190,2147569782,2147574610,156,3,13,12243
1340093833,5808,1006.2000122070312000,41.5807495117187500,575.3458862304688000,4.0093140602111820,55.4364204406738300,55,98,102,78,83,15551,0,0,0,0,2147124068,2147778688,2147573622,2147574418,128,3,13,12672
1340097433,5810,1014.3499755859375000,40.5481491088867200,574.8759765625000000,4.0239329338073730,55.5884895324707000,55,97,101,77,84,15550,0,0,0,0,2147122240,2147775021,2147572854,2147571245,3500,3,13,61339
1340101033,5811,1020.7500000000000000,39.5108985900878900,574.1090087890625000,4.0478000640869140,55.7324485778808600,56,98,101,77,84,15551,0,0,0,0,2147123126,2147778176,2147573458,2147570340,3569,3,13,38232
1340104633,5809,1016.1799926757812000,39.3783493041992200,574.3706054687500000,4.0396609306335450,55.7552795410156250,54,97,101,80,83,15549,0,0,0,0,2147127872,2147780260,2147573869,2147569353,3480,3,13,39812
1340108233,5809,1011.4899902343750000,40.5981712341308600,575.7443237304688000,3.9969139099121094,55.5893783569335940,55,99,102,77,84,15546,0,0,0,0,2147121965,2147778989,2147572635,2147570934,484,3,13,63841
1340111833,5809,1013.2399902343750000,40.3213081359863300,576.0366210937500000,3.9878139495849610,55.6311302185058600,55,101,100,77,84,15548,0,0,0,0,2147123309,2147781787,2147577764,2147574336,173,3,13,17011
1340115433,5810,1016.5900268554688000,40.3659591674804700,575.6229248046875000,4.0006918907165530,55.6217689514160160,55,99,101,78,85,15546,0,0,0,0,2147122560,2147774262,2147577133,2147574116,348,3,13,60925
1340119033,5807,1018.3200073242188000,40.6585006713867200,575.8322143554688000,3.9941771030426025,55.5831718444824200,55,100,100,78,83,15547,0,0,0,0,2147122998,2147779492,2147574006,2147571483,698,3,13,40777
1340122633,5810,1014.6099853515625000,40.9430885314941400,576.4506835937500000,3.9749259948730470,55.5439300537109400,55,98,101,78,84,15539,0,0,0,0,2147122102,2147779876,2147570770,2147570889,154,3,13,12048
1340126233,5808,1015.5999755859375000,41.7249794006347660,576.9815063476562000,3.9583990573883057,55.4370193481445300,54,99,102,78,84,15546,0,0,0,0,2147125604,2147779227,2147574820,2147575753,422,2,13,9597
1340129833,5813,1018.4000244140625000,41.0511512756347660,576.3668823242188000,3.9775331020355225,55.5239715576171900,55,98,103,77,83,15547,0,0,0,0,2147124178,2147777078,2147576027,2147572470,3377,3,13,28250
1340133433,5809,1012.6199951171875000,40.7519302368164060,576.3707275390625000,3.9774129390716553,55.5711708068847660,54,98,101,79,83,15544,0,0,0,0,2147124507,2147776576,2147570395,2147569974,72,3,13,9029
1340137033,5810,1018.4699707031250000,40.8285789489746100,576.2086791992188000,3.9824581146240234,55.5563507080078100,55,98,100,77,83,15537,0,0,0,0,2147125348,2147777398,2147573211,2147570697,3524,3,13,63989
1340140633,5812,1016.7800292968750000,40.6471405029296900,576.4390869140625000,3.9752850532531740,55.5881996154785160,55,102,102,79,85,15533,0,0,0,0,2147121499,2147777444,2147570285,2147570953,3558,3,13,62639
1340144233,5811,1017.9299926757812000,40.4109191894531250,576.7092895507812000,3.9668750762939453,55.6288795471191400,54,98,101,78,84,15536,0,0,0,0,2147123638,2147778029,2147576082,2147571382,125,3,13,420
1340147833,5810,1022.1300048828125000,40.7316894531250000,576.4312744140625000,3.9755289554595947,55.5765800476074200,55,98,101,78,83,15535,0,0,0,0,2147123474,2147774491,2147572553,2147570843,164,3,13,49813
1340151433,5809,1018.5399780273438000,40.8744697570800800,577.2327880859375000,3.9505751132965090,55.5661010742187500,55,99,102,79,84,15535,0,0,0,0,2147121307,2147780452,2147570907,2147571163,3494,3,13,24277
1340155033,5811,1016.0599975585938000,40.1168785095214840,576.6173706054688000,3.9697360992431640,55.6661911010742200,55,99,101,78,84,15533,0,0,0,0,2147125229,2147777417,2147570944,2147572306,3440,3,13,6389
1340158633,5810,1020.5000000000000000,40.9374198913574200,576.4943847656250000,3.9735639095306396,55.5481300354003900,55,98,102,79,84,15533,0,0,0,0,2147123739,2147777161,2147572745,2147572059,327,3,13,63643
1340162233,5811,1021.0800170898438000,41.0560188293457000,577.1578979492188000,3.9529080390930176,55.5377197265625000,55,98,102,78,83,15503,0,0,0,0,2147123538,2147781860,2147575808,2147570523,3547,3,13,25358
1340165833,5809,1026.6400146484375000,40.8018684387207000,576.3632812500000000,3.9776439666748047,55.5665092468261700,54,97,101,78,84,15489,0,0,0,0,2147124790,2147776164,2147574354,2147571382,328,3,13,8473
1340169433,5807,1025.2199707031250000,40.7642402648925800,575.9144897460938000,3.9916150569915770,55.5636482238769500,55,98,112,79,85,15512,0,0,0,0,2147125412,2147779328,2147570605,2147569609,509,3,13,17862
1340173033,5812,1022.2999877929688000,40.3041496276855500,575.5438842773438000,4.0031509399414060,55.6280784606933600,55,99,102,79,84,15487,0,0,0,0,2147121234,2147780324,2147576905,2147573056,90,3,13,50516
1340176633,5810,1029.5699462890625000,40.6338081359863300,575.4733886718750000,4.0053439140319820,55.5831298828125000,55,98,102,77,84,15483,0,0,0,0,2147122953,2147776502,2147572818,2147571245,3021,3,13,6552
1340180233,5809,1028.6300048828125000,40.1927604675293000,575.3750000000000000,4.0084080696105960,55.6453285217285160,55,96,101,78,83,15485,0,0,0,0,2147121901,2147780242,2147574774,2147574317,3584,3,13,15132
1340183833,5809,1030.9499511718750000,40.5214614868164060,575.0045776367188000,4.0199341773986820,55.5939102172851560,56,100,101,78,83,15489,0,0,0,0,2147122980,2147779181,2147573869,2147568886,3415,3,13,54496
1340187433,5810,1024.5400390625000000,39.9125518798828100,574.9790039062500000,4.0207309722900390,55.6796302795410160,54,98,102,77,84,15488,0,0,0,0,2147125302,2147778624,2147575140,2147572928,425,3,13,12357
1340191033,5809,1024.4499511718750000,39.6374397277832000,576.2069702148438000,3.9825100898742676,55.7343902587890600,55,99,101,78,84,15488,0,0,0,0,2147123520,2147778221,2147569499,2147574491,106,3,13,15338
1340194633,5808,1019.2500000000000000,40.6569213867187500,577.3452148437500000,3.9470770359039307,55.5957412719726560,55,117,101,78,84,15463,0,0,0,0,2147126034,2147777883,2147573650,2147574701,3274,3,13,27181
1340198233,5813,1021.0200195312500000,41.7730598449707000,578.1657714843750000,3.9215180873870850,55.4426307678222660,55,99,100,78,84,15490,0,0,0,0,2147122742,2147781284,2147574080,2147570916,94,3,13,36250
1340201833,5809,1021.6199951171875000,41.6504211425781250,578.9055175781250000,3.8984780311584473,55.4652595520019500,55,98,101,77,84,15486,0,0,0,0,2147121453,2147778477,2147571556,2147573522,192,3,13,18495
1340205433,5812,1022.1699829101562000,41.6152496337890600,579.0195922851562000,3.8949239253997803,55.4745597839355500,55,99,102,79,83,15473,0,0,0,0,2147123136,2147776457,2147577051,2147569133,120,3,13,21749
1340209033,5809,1023.2700195312500000,41.9696998596191400,578.8413696289062000,3.9004759788513184,55.4231491088867200,55,100,100,78,83,15489,0,0,0,0,2147122779,2147779922,2147571072,2147574080,94,3,13,3320
1340212633,5809,1031.2700195312500000,41.5973396301269500,577.3903808593750000,3.9456670284271240,55.4629096984863300,55,98,102,78,83,15487,0,0,0,0,2147121316,2147773970,2147577060,2147572598,3559,3,13,61303
1340216233,5812,1026.8599853515625000,40.8115882873535160,577.0761718750000000,3.9554519653320312,55.5689086914062500,55,97,102,78,84,15505,0,0,0,0,2147120246,2147777380,2147570614,2147569993,76,3,13,45903
1340219833,5809,1030.0999755859375000,40.9744415283203100,576.4729003906250000,3.9742341041564940,55.5419883728027340,55,99,101,77,84,15504,0,0,0,0,2147122011,2147781888,2147572004,2147569472,3472,3,13,13402
1340220356,5811,1027.2199707031250000,40.7210006713867200,576.3610229492188000,3.9777181148529053,55.5738105773925800,54,100,102,78,84,15503,0,0,0,0,2147120969,2147776557,2147574802,2147573714,3395,3,13,65364
